Location: ??
(35.4627°N, 139.3695°E)
Time: 15:54:41
(UTC+00:00)

Milstar 3 Cent rocket - Pass Details

Date: 25 November 2020
Orbit: 706 x 5147 km, 28.3° (Epoch: 20 January)

Event Time Altitude Azimuth Distance (km) Brightness Sun altitude
Exits shadow 18:08:10 37° 142° (SE) 1,842 4.0 -40.4°
Drops below altitude 10° 18:16:36 10° 93° (E) 4,403 6.6 -38.7°
Sets 18:21:50 0° 87° (E) 6,151 7.6 -37.6°
